GAOFEN-1 02

Last updated on Sat Aug 15 2026 00:02:46 GMT+0000 (Coordinated Universal Time)

1 43259U 18031A 26226.64931177 .00000136 00000+0 26915-4 0 9998 2 43259 98.0489 288.9991 0002982 155.0196 205.1158 14.76447798451321
UTC large
Height (km)
Speed (km/s)
/
Latitude / Longitude
Inclination (degrees)
Orbital Period (minutes)
Azimuth
Elevation
Range (km)
Doppler Factor

Next 0 passes for location: London (51.5072 / 0.1276)

No passes found over London.
GAOFEN-1 02